Location: Unspecified
(51.0950°N, 12.9690°E)
Time: 07:30:00
(UTC+00:00)

PCSat - Pass Details

Date: 19 April 2024
Orbit: 783 x 792 km, 67.1° (Epoch: 24 May)

Event Time Altitude Azimuth Distance (km) Brightness Sun altitude
Rises 02:30:46 0° 323° (NW) 3,300 12.8 -13.6°
Reaches altitude 10° 02:33:17 10° 329° (NNW) 2,369 12.1 -13.3°
Maximum altitude 02:38:32 47° 43° (NE) 1,044 10.7 -12.7°
Drops below altitude 10° 02:43:45 10° 118° (ESE) 2,359 12.4 -12.0°
Sets 02:46:15 0° 124° (SE) 3,284 13.1 -11.7°
